KB9PMA-1 Weather Reports


time (UTC)temp
C
wind
direction
speed
KPH
gust
KPH
rain 1hr
cm
rain 24hr
cm
rain mn
cm
humidity
%
barometer
mb
20260509044319 12 196 0.0 0.0 0.00 0.76 0.00 96 1009.8
20260509044247 12 196 0.0 0.0 0.00 0.76 0.00 96 1009.8
20260509043747 12 196 0.0 0.0 0.00 0.76 0.00 96 1009.8
20260509043247 12 196 0.0 0.0 0.00 0.76 0.00 96 1009.8
20260509042747 12 196 0.0 0.0 0.00 0.76 0.00 96 1009.8
20260509042247 12 196 0.0 0.0 0.00 0.76 0.00 96 1009.8
20260509041747 12 196 0.0 0.0 0.00 0.76 0.00 96 1009.8
20260509041247 12 196 0.0 0.0 0.00 0.76 0.00 96 1009.8
20260509040747 12 196 0.0 0.0 0.00 0.76 0.00 96 1009.8
20260509040247 12 196 0.0 0.0 0.00 0.76 0.00 96 1009.8
20260509035747 12 196 0.0 0.0 0.00 0.76 0.00 96 1009.9
20260509035247 12 196 0.0 0.0 0.00 0.76 0.76 96 1010.0
20260509034747 12 196 0.0 0.0 0.00 0.76 0.76 96 1010.0
20260509034247 12 196 0.0 0.0 0.00 0.76 0.76 96 1010.0
20260509033747 12 196 0.0 0.0 0.00 0.76 0.76 96 1010.0
20260509033247 12 196 0.0 0.0 0.00 0.76 0.76 96 1010.1
20260509032747 12 196 0.0 1.6 0.00 0.76 0.76 96 1010.1
20260509032247 12 192 1.6 3.2 0.00 0.76 0.76 96 1010.2
20260509031747 12 217 0.0 6.4 0.00 0.76 0.76 96 1010.1
20260509031247 12 185 0.0 3.2 0.00 0.76 0.76 96 1010.1
20260509030747 12 227 3.2 3.2 0.00 0.76 0.76 96 1010.2
20260509030247 12 192 0.0 1.6 0.00 0.76 0.76 96 1010.2
20260509025747 12 217 0.0 3.2 0.00 0.76 0.76 96 1010.2
20260509025247 12 219 0.0 0.0 0.00 0.76 0.76 95 1010.2
20260509024747 12 219 0.0 0.0 0.00 0.76 0.76 95 1010.2
20260509024247 12 219 0.0 0.0 0.00 0.76 0.76 95 1010.2
20260509023747 12 219 0.0 0.0 0.00 0.76 0.76 95 1010.2
20260509023247 12 219 0.0 0.0 0.00 0.76 0.76 95 1010.1
20260509022747 12 219 0.0 0.0 0.00 0.76 0.76 95 1010.1
20260509022247 12 219 0.0 0.0 0.00 0.76 0.76 95 1010.1
20260509021747 12 219 0.0 0.0 0.00 0.76 0.76 95 1010.0
20260509021247 12 219 0.0 0.0 0.00 0.76 0.76 95 1010.0
20260509020747 12 219 0.0 0.0 0.00 0.76 0.76 95 1010.1
20260509020247 12 219 0.0 0.0 0.00 0.76 0.76 95 1010.1
20260509015747 12 219 0.0 0.0 0.00 0.76 0.76 95 1010.1
20260509015247 12 219 0.0 0.0 0.00 0.76 0.76 95 1010.1
20260509014747 12 219 0.0 0.0 0.00 0.76 0.76 95 1010.0
20260509014247 12 219 0.0 0.0 0.00 0.76 0.76 95 1009.9
20260509013747 12 219 0.0 3.2 0.00 0.76 0.76 95 1010.0
20260509013247 12 172 3.2 3.2 0.00 0.76 0.76 95 1010.0
20260509012747 12 226 0.0 0.0 0.00 0.76 0.76 95 1009.9
20260509012247 12 226 0.0 0.0 0.00 0.76 0.76 95 1010.0
20260509011747 12 226 0.0 4.8 0.00 0.76 0.76 95 1010.0
20260509011247 12 188 0.0 0.0 0.00 0.76 0.76 95 1010.1
20260509010747 12 188 0.0 4.8 0.00 0.76 0.76 95 1010.1
20260509010247 12 172 0.0 1.6 0.00 0.76 0.76 95 1010.0
20260509005747 12 198 1.6 3.2 0.00 0.76 0.76 95 1010.0
20260509005247 12 163 0.0 0.0 0.00 0.76 0.76 95 1009.9
20260509004747 12 163 0.0 0.0 0.00 0.76 0.76 95 1010.0
20260509004247 12 163 0.0 9.7 0.00 0.76 0.76 95 1010.0
20260509003747 12 184 4.8 4.8 0.00 0.76 0.76 95 1010.0
20260509003247 12 219 0.0 1.6 0.00 0.76 0.76 95 1010.0
20260509002747 12 210 0.0 1.6 0.00 0.76 0.76 95 1010.1
20260509002247 12 198 0.0 0.0 0.00 0.76 0.76 95 1010.1
20260509001747 12 202 0.0 6.4 0.00 0.76 0.76 95 1010.1
20260509001247 12 202 1.6 1.6 0.00 0.76 0.76 95 1010.1
20260509000747 12 212 0.0 8.0 0.00 0.76 0.76 95 1010.1
20260509000248 13 236 0.0 1.6 0.00 0.76 0.76 95 1010.1
20260508235747 13 170 0.0 0.0 0.00 0.76 0.76 95 1010.0
20260508235247 13 170 0.0 0.0 0.00 0.76 0.76 95 1010.1
20260508234747 13 170 0.0 0.0 0.00 0.76 0.76 95 1010.2
20260508234247 13 170 0.0 6.4 0.00 0.76 0.76 95 1010.3
20260508233747 13 177 0.0 11.3 0.00 0.76 0.76 95 1010.2
20260508233247 13 177 1.6 8.0 0.00 0.76 0.76 95 1010.2
20260508232747 13 160 0.0 3.2 0.00 0.76 0.76 95 1010.2
20260508232247 13 237 1.6 3.2 0.00 0.76 0.76 95 1010.2
20260508231747 13 226 0.0 1.6 0.00 0.76 0.76 95 1010.2
20260508231247 13 226 0.0 1.6 0.00 0.76 0.76 95 1010.2
20260508230747 13 174 0.0 1.6 0.00 0.76 0.76 95 1010.2
20260508230247 13 143 0.0 0.0 0.03 0.76 0.76 95 1010.2
20260508225747 13 143 0.0 1.6 0.03 0.76 0.76 95 1010.3
20260508225247 13 189 0.0 1.6 0.03 0.76 0.76 95 1010.3
20260508224747 13 250 0.0 0.0 0.03 0.76 0.76 95 1010.4
20260508224247 13 250 0.0 0.0 0.05 0.76 0.76 94 1010.3
20260508223747 13 250 0.0 4.8 0.08 0.76 0.76 94 1010.3
20260508223247 13 212 0.0 0.0 0.08 0.76 0.76 94 1010.3
20260508222747 13 212 0.0 4.8 0.08 0.76 0.76 94 1010.3
20260508222247 13 167 0.0 0.0 0.10 0.76 0.76 94 1010.3
20260508221747 13 167 0.0 0.0 0.10 0.76 0.76 94 1010.3
20260508221247 13 167 0.0 4.8 0.10 0.76 0.76 94 1010.3
20260508220747 13 213 1.6 1.6 0.13 0.76 0.76 94 1010.3
20260508220247 13 217 0.0 4.8 0.10 0.74 0.74 94 1010.3
20260508215747 13 165 0.0 0.0 0.13 0.74 0.74 94 1010.3
20260508215247 13 165 0.0 0.0 0.13 0.74 0.74 93 1010.3
20260508214747 13 165 0.0 4.8 0.13 0.74 0.74 93 1010.2
20260508214247 13 209 3.2 8.0 0.13 0.71 0.71 93 1010.4
20260508213747 13 230 3.2 4.8 0.10 0.69 0.69 93 1010.5
20260508213247 13 298 1.6 3.2 0.13 0.69 0.69 93 1010.5
20260508212747 13 241 1.6 11.3 0.15 0.69 0.69 92 1010.6
20260508212248 13 248 0.0 8.0 0.15 0.66 0.66 92 1010.6
20260508211747 13 172 3.2 6.4 0.18 0.66 0.66 92 1010.7
20260508211247 13 258 0.0 14.5 0.20 0.66 0.66 92 1010.7
20260508210748 13 163 0.0 3.2 0.23 0.64 0.64 93 1010.8
20260508210247 13 215 0.0 3.2 0.28 0.64 0.64 93 1010.9
20260508205748 13 210 0.0 9.7 0.28 0.61 0.61 92 1011.0
20260508205248 13 236 1.6 4.8 0.30 0.61 0.61 92 1010.9
20260508204747 13 262 0.0 6.4 0.33 0.61 0.61 92 1011.0
20260508204248 13 220 0.0 9.7 0.33 0.58 0.58 92 1010.9
20260508203748 13 206 0.0 4.8 0.36 0.58 0.58 92 1011.0
20260508203248 13 243 1.6 6.4 0.36 0.56 0.56 92 1011.0
20260508202748 13 215 1.6 1.6 0.33 0.53 0.53 92 1011.1
20260508202248 13 247 0.0 1.6 0.33 0.51 0.51 91 1011.2
20260508201748 13 299 0.0 6.4 0.30 0.48 0.48 91 1011.2
20260508201248 13 174 0.0 9.7 0.30 0.46 0.46 90 1011.3
20260508200748 13 227 6.4 8.0 0.25 0.41 0.41 89 1011.3
20260508200248 13 271 0.0 11.3 0.23 0.36 0.36 89 1011.3
20260508195748 13 9 1.6 9.7 0.23 0.33 0.33 89 1011.2
20260508195248 13 243 3.2 12.9 0.20 0.30 0.30 88 1011.4
20260508194748 14 251 0.0 12.9 0.18 0.28 0.28 87 1011.4
20260508194248 14 300 0.0 4.8 0.18 0.25 0.25 87 1011.5
20260508193748 14 268 3.2 3.2 0.15 0.23 0.23 87 1011.5
20260508193248 14 243 0.0 4.8 0.13 0.20 0.20 86 1011.4
20260508192748 14 302 1.6 6.4 0.13 0.20 0.20 85 1011.5
20260508192248 14 279 4.8 8.0 0.10 0.18 0.18 84 1011.4
20260508191748 15 299 0.0 9.7 0.10 0.18 0.18 83 1011.5
20260508191248 15 241 0.0 6.4 0.08 0.15 0.15 80 1011.5
20260508190748 15 150 1.6 9.7 0.08 0.15 0.15 78 1011.6
20260508190248 16 248 3.2 24.1 0.05 0.13 0.13 78 1011.5
20260508185748 16 161 3.2 11.3 0.03 0.10 0.10 74 1011.6
20260508185248 16 244 4.8 9.7 0.03 0.10 0.10 74 1011.4
20260508184748 17 296 0.0 20.9 0.03 0.10 0.10 70 1011.3
20260508184248 17 203 9.7 16.1 0.00 0.08 0.08 65 1011.4
20260508183748 17 279 1.6 16.1 0.00 0.08 0.08 61 1011.4
20260508183248 17 253 4.8 12.9 0.00 0.08 0.08 59 1011.3
20260508182748 17 243 4.8 29.0 0.00 0.08 0.08 59 1011.3
20260508182248 17 241 9.7 20.9 0.00 0.08 0.08 56 1011.4
20260508181748 18 158 6.4 9.7 0.00 0.08 0.08 57 1011.4
20260508181248 18 241 8.0 17.7 0.00 0.08 0.08 58 1011.5
20260508180748 18 241 6.4 12.9 0.00 0.08 0.08 57 1011.4
20260508180248 18 288 4.8 8.0 0.00 0.08 0.08 55 1011.4
20260508175748 18 161 1.6 19.3 0.00 0.08 0.08 52 1011.4
20260508175248 18 251 1.6 11.3 0.00 0.08 0.08 56 1011.5
20260508174748 18 118 0.0 19.3 0.00 0.08 0.08 55 1011.5
20260508174248 18 303 3.2 19.3 0.00 0.08 0.08 54 1011.5
20260508173748 18 307 1.6 14.5 0.00 0.08 0.08 56 1011.6
20260508173509 18 248 1.6 16.1 0.00 0.08 0.08 58 1011.7
20260508173248 18 248 1.6 16.1 0.00 0.08 0.08 58 1011.7
20260508172748 18 274 4.8 16.1 0.00 0.08 0.08 56 1011.8
20260508172248 17 264 8.0 14.5 0.00 0.08 0.08 60 1011.9
20260508171748 17 217 3.2 9.7 0.00 0.08 0.08 62 1012.1
20260508171248 17 289 4.8 8.0 0.00 0.08 0.08 62 1012.2
20260508170748 17 284 0.0 11.3 0.00 0.08 0.08 60 1012.4
20260508170248 17 87 1.6 11.3 0.00 0.08 0.08 62 1012.4
20260508165748 17 281 0.0 16.1 0.00 0.08 0.08 61 1012.4
20260508165248 17 278 14.5 16.1 0.00 0.08 0.08 56 1012.5
20260508164748 17 337 1.6 9.7 0.00 0.08 0.08 60 1012.7
20260508164248 17 160 3.2 14.5 0.00 0.08 0.08 59 1012.9
20260508163748 17 336 6.4 16.1 0.00 0.08 0.08 57 1012.9
20260508163248 17 298 3.2 16.1 0.00 0.08 0.08 56 1013.1
20260508162748 17 320 4.8 11.3 0.00 0.08 0.08 59 1012.9
20260508162248 16 250 6.4 19.3 0.00 0.08 0.08 59 1013.2
20260508161748 16 306 4.8 17.7 0.00 0.08 0.08 59 1013.1
20260508161248 16 215 4.8 6.4 0.00 0.08 0.08 61 1013.2
20260508160748 16 316 1.6 9.7 0.00 0.08 0.08 59 1013.2
20260508160248 16 185 3.2 12.9 0.00 0.08 0.08 60 1013.2
20260508155748 16 244 4.8 8.0 0.00 0.08 0.08 59 1013.3
20260508155248 16 219 1.6 11.3 0.00 0.08 0.08 60 1013.3
20260508154748 16 97 6.4 6.4 0.00 0.08 0.08 63 1013.3
20260508154248 15 293 1.6 17.7 0.00 0.08 0.08 62 1013.5
20260508153748 15 277 8.0 14.5 0.00 0.08 0.08 64 1013.6
20260508153248 15 292 9.7 14.5 0.00 0.08 0.08 63 1013.6
20260508152748 15 302 0.0 9.7 0.00 0.08 0.08 67 1013.7
20260508152248 15 296 4.8 19.3 0.00 0.08 0.08 63 1013.7
20260508151748 15 271 14.5 14.5 0.00 0.08 0.08 63 1013.8
20260508151248 15 223 3.2 11.3 0.00 0.08 0.08 66 1013.7
20260508150748 15 198 4.8 6.4 0.00 0.08 0.08 69 1013.7
20260508150248 15 160 3.2 11.3 0.00 0.08 0.08 63 1013.8
20260508145748 15 178 1.6 11.3 0.00 0.08 0.08 66 1013.9
20260508145248 14 230 6.4 8.0 0.00 0.08 0.08 66 1013.8
20260508144748 14 143 1.6 11.3 0.00 0.08 0.08 66 1013.9
20260508144248 13 222 9.7 11.3 0.00 0.08 0.08 69 1013.8
20260508143748 13 274 4.8 14.5 0.00 0.08 0.08 68 1013.9
20260508143248 13 248 4.8 9.7 0.00 0.08 0.08 74 1014.0
20260508142748 12 237 0.0 8.0 0.00 0.08 0.08 75 1014.0
20260508142248 12 161 1.6 8.0 0.00 0.08 0.08 80 1014.1
20260508141748 12 226 3.2 14.5 0.00 0.08 0.08 79 1014.1
20260508141248 12 281 3.2 8.0 0.00 0.08 0.08 80 1014.3
20260508140748 12 104 0.0 11.3 0.00 0.08 0.08 78 1014.3
20260508140248 12 310 3.2 11.3 0.00 0.08 0.08 79 1014.4
20260508135748 12 312 4.8 11.3 0.00 0.08 0.08 77 1014.4
20260508135248 12 229 1.6 11.3 0.00 0.08 0.08 79 1014.2
20260508134748 12 285 3.2 9.7 0.00 0.08 0.08 78 1014.1
20260508134248 12 236 3.2 11.3 0.00 0.08 0.08 78 1013.9
20260508133748 11 157 0.0 6.4 0.00 0.08 0.08 82 1013.9
20260508133248 11 182 0.0 4.8 0.00 0.08 0.08 83 1013.8
20260508132748 11 22 0.0 3.2 0.00 0.08 0.08 87 1013.7
20260508132248 11 201 1.6 11.3 0.00 0.08 0.08 89 1013.7
20260508131748 10 185 0.0 3.2 0.00 0.08 0.08 92 1013.9
20260508131248 10 181 0.0 4.8 0.00 0.08 0.08 93 1014.0
20260508130748 10 174 0.0 0.0 0.00 0.08 0.08 94 1014.0
20260508130248 10 174 0.0 0.0 0.00 0.08 0.08 94 1014.1
20260508125748 10 174 0.0 0.0 0.00 0.08 0.08 94 1014.1
20260508125248 9 174 0.0 0.0 0.00 0.08 0.08 94 1014.1
20260508124749 9 174 0.0 0.0 0.03 0.08 0.08 94 1014.1
20260508124248 9 174 0.0 0.0 0.05 0.08 0.08 94 1014.2
20260508123748 9 174 0.0 0.0 0.05 0.08 0.08 93 1014.1
20260508123248 9 174 0.0 0.0 0.08 0.08 0.08 93 1014.1
20260508122748 9 174 0.0 0.0 0.08 0.08 0.08 93 1014.0
20260508122248 9 174 0.0 0.0 0.08 0.08 0.08 92 1013.9
20260508121749 9 174 0.0 0.0 0.08 0.08 0.08 93 1013.9
20260508121254 9 174 0.0 0.0 0.00 0.08 0.08 92 1013.8
20260508121248 9 174 0.0 0.0 0.08 0.08 0.08 92 1013.8
20260508120749 9 174 0.0 0.0 0.08 0.08 0.08 92 1013.8
20260508120249 9 174 0.0 0.0 0.08 0.08 0.08 91 1013.8
20260508115749 9 174 0.0 0.0 0.08 0.08 0.08 91 1013.8
20260508115249 9 174 0.0 3.2 0.08 0.08 0.08 90 1013.8
20260508114749 10 194 1.6 3.2 0.05 0.05 0.05 88 1014.0
20260508114249 10 233 1.6 4.8 0.03 0.03 0.03 87 1014.1
20260508113749 10 272 1.6 4.8 0.03 0.03 0.03 86 1014.0
20260508113249 10 233 1.6 8.0 0.00 0.00 0.00 84 1013.9
20260508112749 10 225 6.4 8.0 0.00 0.00 0.00 84 1013.7
20260508112249 10 227 1.6 6.4 0.00 0.00 0.00 80 1013.7
20260508111749 10 191 3.2 8.0 0.00 0.00 0.00 79 1013.7
20260508111249 11 213 0.0 11.3 0.00 0.00 0.00 76 1013.7
20260508110749 11 284 3.2 14.5 0.00 0.00 0.00 77 1013.7
20260508110249 11 196 0.0 9.7 0.00 0.00 0.00 75 1013.7
20260508105749 11 234 0.0 12.9 0.00 0.00 0.00 74 1013.6
20260508105249 11 251 4.8 9.7 0.00 0.00 0.00 74 1013.6
20260508104749 11 208 1.6 14.5 0.00 0.00 0.00 75 1013.6
20260508104249 11 303 1.6 9.7 0.00 0.00 0.00 75 1013.6
20260508103749 10 243 4.8 16.1 0.00 0.00 0.00 73 1013.6
20260508103249 10 64 0.0 11.3 0.00 0.00 0.00 76 1013.6
20260508102749 10 208 3.2 14.5 0.00 0.00 0.00 77 1013.5
20260508102249 10 247 3.2 14.5 0.00 0.00 0.00 75 1013.3
20260508101749 11 268 8.0 8.0 0.00 0.00 0.00 77 1013.3
20260508101249 11 264 3.2 12.9 0.00 0.00 0.00 77 1013.4
20260508100749 11 241 0.0 8.0 0.00 0.00 0.00 76 1013.5
20260508100249 11 206 0.0 11.3 0.00 0.00 0.00 76 1013.5
20260508095749 11 240 1.6 17.7 0.00 0.00 0.00 76 1013.4
20260508095249 10 298 1.6 11.3 0.00 0.00 0.00 76 1013.5
20260508094749 10 229 1.6 22.5 0.00 0.00 0.00 78 1013.6
20260508094249 10 234 9.7 12.9 0.00 0.00 0.00 80 1013.7
20260508093749 10 49 3.2 14.5 0.00 0.00 0.00 80 1013.8
20260508093251 10 250 0.0 14.5 0.00 0.00 0.00 82 1013.8
20260508092749 10 327 0.0 6.4 0.00 0.00 0.00 83 1013.8
20260508092249 9 212 0.0 0.0 0.00 0.00 0.00 83 1013.7
20260508091749 9 212 0.0 9.7 0.00 0.00 0.00 83 1013.6
20260508091249 9 281 0.0 9.7 0.00 0.00 0.00 83 1013.7
20260508090749 9 288 0.0 6.4 0.00 0.00 0.00 84 1013.7
20260508090249 9 215 1.6 3.2 0.00 0.00 0.00 83 1013.6
20260508085749 9 222 0.0 0.0 0.00 0.00 0.00 83 1013.6
20260508085249 9 222 0.0 0.0 0.00 0.00 0.00 83 1013.6
20260508084749 9 222 0.0 8.0 0.00 0.00 0.00 82 1013.6
20260508084249 9 272 0.0 9.7 0.00 0.00 0.00 81 1013.5
20260508083749 9 206 4.8 8.0 0.00 0.00 0.00 81 1013.6
20260508083249 9 209 1.6 6.4 0.00 0.00 0.00 81 1013.5
20260508082749 9 250 0.0 14.5 0.00 0.00 0.00 79 1013.5
20260508082249 9 232 1.6 11.3 0.00 0.00 0.00 81 1013.6
20260508081749 8 264 3.2 9.7 0.00 0.00 0.00 81 1013.7
20260508081249 8 220 1.6 17.7 0.00 0.00 0.00 81 1013.8
20260508080749 8 278 4.8 8.0 0.00 0.00 0.00 82 1013.7
20260508080249 8 226 4.8 9.7 0.00 0.00 0.00 82 1013.8
20260508075749 8 154 0.0 4.8 0.00 0.00 0.00 84 1013.8
20260508075249 8 313 1.6 6.4 0.00 0.00 0.00 85 1013.8
20260508074749 8 208 3.2 6.4 0.00 0.00 0.00 86 1013.8
20260508074249 8 227 0.0 9.7 0.00 0.00 0.00 87 1013.9
20260508073749 7 279 4.8 4.8 0.00 0.00 0.00 88 1013.8
20260508073249 7 216 0.0 1.6 0.00 0.00 0.00 89 1013.8
20260508072749 7 153 0.0 1.6 0.00 0.00 0.00 89 1013.8
20260508072249 7 345 0.0 6.4 0.00 0.00 0.00 89 1013.9
20260508071749 7 143 0.0 6.4 0.00 0.00 0.00 89 1013.9
20260508071249 7 348 6.4 6.4 0.00 0.00 0.00 90 1013.9
20260508070749 7 243 0.0 0.0 0.00 0.00 0.00 90 1013.9
20260508070249 7 243 0.0 0.0 0.00 0.00 0.00 90 1014.0
20260508065749 7 243 0.0 0.0 0.00 0.00 0.00 91 1014.1
20260508065249 7 223 0.0 0.0 0.00 0.00 0.00 92 1014.1
20260508064749 7 223 0.0 0.0 0.00 0.00 0.00 92 1014.0
20260508064249 7 208 0.0 0.0 0.00 0.00 0.00 92 1014.0
20260508063749 7 225 0.0 1.6 0.00 0.00 0.00 92 1014.0
20260508063249 7 285 0.0 0.0 0.00 0.00 0.00 92 1014.1
20260508062749 7 196 0.0 0.0 0.00 0.00 0.00 92 1014.1
20260508062249 7 215 0.0 3.2 0.00 0.00 0.00 92 1014.1
20260508061749 7 163 0.0 1.6 0.00 0.00 0.00 92 1014.1
20260508061249 7 209 0.0 4.8 0.00 0.00 0.00 92 1014.1
20260508060749 7 191 0.0 0.0 0.00 0.00 0.00 92 1014.1
20260508060249 7 111 0.0 0.0 0.00 0.00 0.00 92 1014.2
20260508055749 7 111 0.0 0.0 0.00 0.00 0.00 91 1014.2
20260508055249 7 111 0.0 0.0 0.00 0.00 0.00 91 1014.3
20260508054749 7 111 0.0 0.0 0.00 0.00 0.00 91 1014.3
20260508054249 7 111 0.0 0.0 0.00 0.00 0.00 90 1014.4
20260508053749 7 111 0.0 0.0 0.00 0.00 0.00 90 1014.4
20260508053249 7 111 0.0 0.0 0.00 0.00 0.00 90 1014.4
20260508052749 7 111 0.0 0.0 0.00 0.00 0.00 90 1014.5
20260508052249 7 111 0.0 0.0 0.00 0.00 0.00 90 1014.4
20260508051749 7 111 0.0 0.0 0.00 0.00 0.00 89 1014.4
20260508051249 7 111 0.0 0.0 0.00 0.00 0.00 89 1014.4
20260508050749 7 111 0.0 0.0 0.00 0.00 0.00 88 1014.4
20260508050249 7 111 0.0 0.0 0.00 0.00 0.00 88 1014.4
20260508045749 7 111 0.0 0.0 0.00 0.00 0.00 87 1014.4
20260508045249 7 111 0.0 0.0 0.00 0.00 0.00 86 1014.5
20260508044749 8 111 0.0 0.0 0.00 0.00 0.00 86 1014.5